Location: Bad Salzschlirf
(50.3750°N, 9.3000°E)
Time: 04:32:47
(UTC+02:00)

ISS - Pass Details

Date: 07 July 2025
Orbit: 413 x 417 km, 51.6° (Epoch: 12 July)

Event Time Altitude Azimuth Distance (km) Brightness Sun altitude
Rises 00:24:16 0° 242° (WSW) 2,346 -0.1 -15.7°
Reaches altitude 10° 00:26:22 10° 239° (WSW) 1,487 -1.1 -15.8°
Maximum altitude 00:29:40 63° 158° (SSE) 468 -3.9 -15.9°
Drops below altitude 10° 00:32:59 10° 77° (ENE) 1,494 -1.0 -16.0°
Sets 00:35:06 0° 74° (ENE) 2,360 0.1 -16.1°
